ROMMA est une association bénévole à but non lucratif. Votre soutien est indispensable : ADHERER à ROMMA ou FAIRE un DON

Crêts du Salève - (74, Haute-Savoie)

Salève (1270 m)   Longitude: 6° 10' 28'' E   Latitude: 46° 7' 42'' N Station romma n°73
 

Détail journalier du     <<     >>

Température Precipitation Humidité Vent Dir Rafale Dir. rafale Ensol.
Heure (°C) (mm) (%) (km/h) (km/h) (min)
01:00 -2.20795ENE15SSE0
02:00 -2.60796S11S0
03:00 -2.90843S10S0
04:00 -3.90885S15OSO0
05:00 -4.308812OSO18O0
06:00 -4.408320NNO27NNO0
07:00 -3.808615NNO23NNO0
08:00 -4.208813NNO21NNO20
09:00 -3.808914NNO21NNO60
10:00 -2.70866N15NNE50
11:00 -2.207610N23N50
12:00 -2.808118NO24NNO60
13:00 -1.306720NNO34NNO60
14:00 -0.607520NNO34NNO70
15:00 0.007321NNO31NO50
16:00 0.707126NNO39NNO60
17:00 1.406420NNO31NO60
18:00 0.607017NO29NO60
19:00 -0.307124NNO40NNO10
20:00 -0.907527N42N0
21:00 -1.407730NNO44NNO0
22:00 -1.907633NNO44NNO0
23:00 -1.307926NO37NNO0
minuit -1.907917NO21NO0

Graphique du 26-03-2020

 

Serveur OMMA